Location: Hannover
(52.4091°N, 9.7504°E)
Time: 17:11:18
(UTC+01:00)

ISS - Pass Details

Date: 15 November 2025
Orbit: 416 x 420 km, 51.6° (Epoch: 12 December)

Event Time Altitude Azimuth Distance (km) Brightness Sun altitude
Rises 18:07:24 0° 212° (SSW) 2,360 0.7 -15.0°
Reaches altitude 10° 18:09:50 10° 195° (SSW) 1,498 -0.6 -15.3°
Maximum altitude 18:12:23 20° 146° (SE) 1,028 -2.0 -15.7°
Enters shadow 18:12:44 20° 137° (SE) 1,038 -2.1 -15.8°
